RH
39 40 42 40 37 39 37 43 52 41 43 31 30 31 32 29 30 39 56 55 57 55 58 60 68 63 64 71 68 63 59 60 71 71 58 62 61 59 63 61 59 58 60 62
55 47 42 45 37 38 38 38 43 39 42 36 32 34 34 34 31 35 37 37 41 52 56 62 67 78 75 71 73 66 62 68 68 65 63 61 63 60 60 57 57 60 61 64
70 53 47 62 45 36 36 39 36 41 37 37 35 31 33 40 39 39 39 40 42 45 63 68 73 76 78 70 70 71 68 67 66 61 62 63 58 55 58 63 67 68 67 68
81 69 68 46 34 33 39 37 34 35 37 43 45 50 46 44 44 42 41 42 47 55 59 72 83 79 75 71 74 69 62 60 61 58 58 61 65 65 73 74 70 71 70 69
76 78 58 40 31 32 39 46 42 40 40 39 46 55 54 50 50 53 58 61 64 64 62 64 68 70 69 66 58 57 57 60 60 62 64 67 73 82 79 78 75 70 66 73
94 75 70 52 37 32 38 64 44 48 50 50 48 77 66 54 58 55 56 59 61 60 60 61 60 57 61 66 67 71 71 69 69 71 81 84 83 78 80 76 64 67 71 75
97 84 69 49 37 38 43 49 48 50 51 51 60 62 57 57 55 56 63 67 68 68 70 70 66 64 69 70 73 71 74 78 83 85 85 79 77 77 72 71 74 82 84 85
96 93 69 50 38 44 53 60 54 58 60 68 72 72 60 52 58 68 74 72 69 73 74 69 62 63 70 76 71 70 76 82 82 75 68 67 79 80 78 83 84 84 92 92
76 77 58 48 51 55 56 64 71 77 75 74 73 57 55 64 73 79 81 77 68 65 69 69 67 66 72 78 77 79 75 75 77 77 78 77 83 83 84 85 93 91 93 95
69 69 75 76 68 69 70 69 66 66 66 60 63 68 79 81 82 85 83 73 69 70 72 72 66 68 75 74 74 78 80 83 85 87 86 85 84 87 91 95 94 93 95 94
82 83 72 72 71 68 68 66 67 65 67 71 74 78 80 85 85 82 76 74 72 72 71 67 68 72 73 74 75 77 80 82 84 84 86 89 89 91 92 90 90 90 92 93
78 68 77 82 77 71 72 72 70 73 78 75 76 81 80 86 85 83 77 75 72 73 75 74 73 72 69 69 73 79 82 83 91 95 93 91 92 87 83 86 83 86 86 93
81 74 78 78 74 71 77 76 75 78 78 85 83 84 85 91 90 87 85 83 82 80 77 75 76 77 76 79 81 82 84 84 91 91 92 92 90 92 90 79 86 85 85 84
72 73 84 78 87 78 80 80 80 81 82 85 91 92 92 92 89 87 86 79 76 79 86 90 92 94 91 91 92 89 89 89 91 91 91 90 91 89 88 90 93 91 86 83
78 74 77 75 75 79 76 76 82 89 91 90 89 89 86 87 93 95 95 93 92 96 95 86 84 83 80 88 87 91 92 92 93 94 95 96 97 98 98 98 96 91 92 96
77 76 76 80 81 81 78 79 88 89 86 91 94 94 90 90 93 91 89 91 94 97 93 91 83 73 78 73 77 82 87 91 88 81 81 81 79 81 84 91 94 92 94 94
90 94 87 88 86 81 81 82 83 87 94 92 93 89 88 90 83 84 87 90 94 91 83 79 79 74 82 82 73 76 80 78 83 82 86 85 87 87 87 87 87 85 96 96
72 76 73 75 79 83 85 88 93 93 92 92 91 93 95 92 89 90 95 87 88 90 77 74 84 78 71 67 73 79 82 88 90 89 85 87 88 91 94 92 92 87 85 93
70 73 73 72 76 81 89 97 93 92 92 93 93 97 96 97 90 90 86 92 92 83 75 83 78 68 64 74 87 90 89 90 91 86 86 88 91 88 89 91 92 90 96 98
78 78 82 86 87 90 91 89 91 88 84 86 92 92 88 92 93 94 92 93 77 75 80 76 68 65 66 76 90 83 91 94 88 90 92 92 92 92 92 91 92 93 96 97
84 87 92 94 94 91 87 87 87 83 73 90 90 91 93 92 94 94 90 86 76 81 80 81 77 74 68 85 82 91 95 94 93 95 94 94 93 92 91 91 94 94 95 95
86 90 92 86 83 85 83 81 86 89 88 91 91 92 92 86 95 94 96 86 77 95 90 88 83 92 83 98 88 96 94 92 94 94 94 94 94 93 93 92 93 93 94 95
88 85 84 85 82 78 76 78 90 89 90 91 91 92 93 91 91 95 96 82 88 96 94 99 99 99 98 99 100 100 100 97 97 97 95 95 95 94 94 94 93 93 93 93
97 85 81 76 83 80 74 70 70 78 90 89 92 94 91 97 98 95 94 100 100 100 100 99 100 100 100 100 100 100 100 100 99 100 98 99 96 95 94 93 93 91 91 91
82 79 74 78 68 72 74 72 73 78 82 73 76 77 91 89 95 98 98 98 100 99 98 100 100 100 100 100 100 100 100 100 100 100 100 99 96 95 95 94 93 93 93 92
78 78 75 71 73 75 81 80 89 93 92 98 95 98 99 98 95 96 98 98 98 99 99 100 100 100 100 100 100 100 100 98 100 100 100 100 98 96 97 96 94 93 93 92
73 76 77 82 78 83 84 83 93 99 98 97 96 98 97 98 98 98 100 100 100 100 100 100 100 100 100 100 99 100 100 100 100 100 100 100 99 98 98 96 96 94 93 93
Wind_Speed
5 3 2 3 4 5 5 5 6 10 9 10 4 3 1 5 3 5 4 4 4 5 6 8 7 7 7 6 10 11 10 6 4 3 6 7 10 4 6 5 4 3 4 4
2 3 2 2 4 4 5 3 6 5 3 5 4 5 8 7 8 8 7 6 6 5 8 9 8 7 7 8 6 8 9 8 7 7 8 8 6 6 3 5 5 3 4 5
4 4 3 6 8 7 5 4 5 5 6 3 7 6 5 7 9 8 7 7 7 6 4 6 8 10 10 11 10 9 10 8 8 9 8 8 6 7 6 4 3 3 5 5
3 3 2 9 4 5 10 6 6 9 5 6 9 5 8 5 6 6 6 7 6 6 5 4 5 10 12 11 10 10 8 7 7 10 10 9 9 5 2 3 3 4 6 6
5 4 5 7 4 6 7 0 1 7 5 5 6 5 6 2 6 6 6 6 6 8 9 10 11 12 14 12 13 13 11 11 10 12 12 6 4 5 5 4 4 3 4 6
3 5 8 8 3 5 6 1 5 7 4 4 4 4 4 4 6 9 9 7 9 10 13 14 11 12 16 13 13 12 11 13 11 8 4 5 5 4 4 4 5 4 4 5
2 3 9 9 6 3 7 8 6 7 7 5 4 4 2 10 12 10 10 11 10 13 13 11 11 14 16 13 13 10 9 6 6 3 2 3 4 3 3 5 4 5 5 6
3 3 8 6 4 7 7 3 7 6 5 8 7 8 12 12 11 11 11 11 11 12 12 10 10 12 12 11 7 6 4 4 2 1 2 2 5 4 5 4 3 5 4 5
9 8 4 4 3 5 6 8 4 7 5 9 8 9 10 11 12 11 10 8 7 9 10 8 8 7 8 5 5 4 3 2 1 3 4 4 4 5 3 4 3 5 4 4
5 5 5 7 9 7 7 11 7 6 8 11 14 10 12 11 9 8 6 8 7 9 10 8 7 7 5 4 3 3 1 3 4 4 5 4 3 3 3 3 3 3 4 5
5 1 10 8 7 10 13 12 14 13 12 13 14 12 11 10 9 8 8 8 7 7 6 6 5 4 2 1 1 2 3 4 5 4 5 5 5 5 4 5 6 5 5 5
7 12 6 4 5 7 12 11 11 15 14 12 13 13 12 10 7 7 7 5 6 5 5 5 5 4 4 3 2 3 4 4 4 3 4 5 5 7 9 12 13 15 15 8
8 6 14 13 10 9 14 13 13 14 13 14 11 11 11 8 5 7 6 6 6 5 5 6 6 7 9 8 6 6 6 6 4 5 5 6 6 6 9 9 15 15 15 16
19 20 11 4 9 12 16 15 16 14 12 11 9 6 6 6 5 7 7 6 6 7 8 8 8 8 8 8 7 6 6 7 6 6 7 8 8 9 9 10 11 9 10 15
7 9 15 18 16 14 13 14 15 12 9 9 7 7 7 10 10 8 7 6 7 8 9 10 9 9 10 8 8 7 6 6 7 6 6 8 8 9 9 10 11 12 9 6
15 17 16 17 15 13 13 11 13 10 10 8 9 9 9 9 9 7 8 9 8 7 9 9 9 11 11 10 11 8 8 10 9 8 9 10 10 11 11 10 12 11 10 9
18 10 14 14 13 12 10 9 10 10 10 11 10 7 7 8 7 7 6 5 6 9 9 9 9 9 9 11 11 8 7 8 9 8 8 10 10 11 11 11 12 12 11 8
11 12 12 15 15 14 12 12 11 11 10 9 7 7 7 6 6 6 7 6 7 7 10 9 9 9 10 11 11 8 8 8 8 9 9 9 12 12 12 12 12 12 12 9
14 17 15 14 14 14 12 12 12 10 7 6 7 7 5 4 5 6 6 7 7 8 9 9 11 11 11 12 11 7 8 8 9 9 9 13 10 10 12 15 13 14 13 6
17 16 16 14 13 15 13 10 11 10 7 7 6 6 6 5 4 6 7 9 8 5 6 9 10 10 11 12 10 7 8 7 9 9 8 9 10 11 11 14 17 17 13 10
15 14 14 14 12 11 10 9 10 10 8 5 7 6 5 5 6 3 5 4 7 6 6 7 6 5 6 7 6 6 6 6 7 8 9 9 10 10 10 11 11 11 11 10
12 13 12 12 11 10 8 8 9 8 7 6 5 5 6 6 5 4 3 4 3 4 3 3 4 5 5 6 5 4 6 6 6 7 8 9 9 9 10 10 10 10 9 9
10 11 10 10 10 10 8 7 6 7 6 5 5 4 4 4 3 3 1 3 1 2 1 1 3 4 5 3 2 3 4 4 5 6 6 7 8 8 8 9 9 9 9 9
10 9 9 9 9 9 9 6 7 8 6 6 4 2 3 3 3 2 2 2 2 3 2 2 3 4 4 2 3 3 3 3 4 3 5 6 6 6 7 8 9 9 9 10
10 9 10 8 8 6 8 8 7 7 7 7 5 4 3 2 4 1 2 2 4 3 2 4 5 5 3 3 3 3 3 3 4 2 4 4 6 7 7 7 8 9 9 9
10 8 8 10 7 6 5 5 4 3 4 2 2 2 2 2 3 3 3 3 2 3 2 2 2 3 3 3 3 2 2 3 4 2 3 4 5 6 7 7 8 8 8 9
10 10 8 8 7 6 5 4 3 2 2 2 1 2 3 3 3 3 3 3 2 2 2 2 2 3 3 3 3 2 2 3 3 2 3 4 4 5 7 7 8 8 8 8
Wind_Direction
189 193 239 250 238 175 176 205 156 234 201 242 221 120 278 203 161 87 153 145 219 232 214 205 192 187 171 159 168 170 169 152 114 112 123 128 113 95 109 151 144 192 224 243
207 63 51 216 272 272 206 182 241 257 273 300 85 82 60 54 83 84 69 56 25 231 182 185 177 182 161 157 145 139 131 116 112 100 70 63 81 81 94 24 29 21 345 306
244 353 11 342 224 222 245 205 170 176 177 290 55 57 59 76 77 82 70 60 48 41 198 176 177 167 162 145 124 126 126 122 129 126 114 113 122 71 52 39 28 346 312 293
193 38 7 240 276 144 106 37 96 94 111 120 120 123 82 83 96 67 61 49 37 41 39 28 82 79 96 106 109 110 106 103 100 106 91 70 63 75 77 231 267 275 279 288
134 185 289 301 174 182 129 190 359 124 129 136 158 82 32 82 78 93 81 52 57 56 62 67 79 104 106 99 94 92 89 81 76 82 85 100 137 224 240 266 286 268 277 303
139 141 206 242 243 116 108 161 185 130 122 100 115 84 256 351 102 79 70 60 73 68 71 68 65 90 90 87 87 86 93 97 96 97 115 196 224 271 274 239 250 282 298 277
130 191 287 244 232 90 111 226 157 137 145 141 106 179 109 98 73 72 72 64 61 67 73 71 80 86 83 86 86 97 100 114 113 148 230 267 272 257 268 276 294 283 274 274
96 68 275 193 120 160 196 131 134 118 124 102 106 79 91 86 81 71 69 63 63 73 71 76 83 91 100 105 138 143 131 101 125 201 276 278 270 281 292 295 285 282 273 273
171 211 259 353 132 92 129 125 111 109 107 110 101 82 92 87 78 75 76 76 74 84 81 58 51 54 80 59 62 73 78 98 184 278 275 282 292 285 295 295 262 270 256 255
105 5 82 69 65 71 88 103 90 80 93 103 105 94 92 88 90 88 77 75 75 78 76 71 64 75 98 117 103 95 56 304 293 297 302 294 281 267 258 256 267 253 257 258
75 52 82 37 67 106 97 92 87 74 78 92 101 94 100 92 85 80 75 74 79 87 89 91 89 87 103 152 153 326 305 301 302 292 280 283 268 252 252 247 213 226 234 232
196 184 133 128 108 114 101 98 97 99 84 74 90 96 95 88 90 94 91 78 80 79 74 58 36 14 0 351 304 299 299 283 262 265 274 270 270 285 257 246 242 238 242 221
150 101 104 107 95 100 99 98 92 94 96 98 91 104 102 108 101 103 95 79 67 56 37 28 19 14 7 353 339 310 283 286 279 273 268 267 268 261 274 269 248 254 252 259
116 112 98 149 124 107 102 102 99 95 95 100 104 90 98 102 92 74 62 62 62 57 45 36 32 19 351 345 340 331 309 283 286 288 285 283 276 275 275 274 275 268 252 243
73 79 111 118 114 110 111 114 104 100 97 82 74 85 85 89 82 70 51 39 56 54 47 41 27 13 2 357 355 346 353 342 331 316 306 295 288 282 274 271 269 270 271 252
101 105 114 115 120 121 118 114 110 106 93 85 78 68 80 83 80 68 56 50 61 47 51 38 21 4 354 356 0 356 353 346 338 326 317 313 309 303 299 291 285 272 259 251
109 117 125 124 130 128 121 111 105 102 102 99 96 90 82 85 73 54 43 42 66 62 50 30 2 355 358 22 360 343 330 326 323 320 321 317 307 300 295 298 296 292 269 249
118 121 129 129 128 120 108 103 102 109 108 111 105 86 79 74 74 62 72 63 59 57 30 15 25 17 4 358 350 336 331 326 330 330 325 329 333 319 299 291 287 289 281 252
113 117 118 116 116 112 111 112 113 108 103 100 98 93 84 61 59 84 94 70 51 31 12 39 21 12 1 356 352 343 348 344 340 345 339 334 329 331 339 328 294 287 283 246
101 102 101 100 106 111 111 107 112 107 100 100 97 88 87 59 54 91 84 81 54 18 20 35 23 11 4 355 353 356 345 353 350 343 339 336 341 339 342 350 1 5 10 13
105 106 104 103 100 103 110 119 119 113 108 92 104 111 105 81 77 82 65 59 39 10 29 38 29 10 10 350 4 353 345 7 354 346 345 345 339 341 351 352 358 1 3 5
113 107 109 111 112 111 111 114 114 114 111 107 95 88 92 89 110 89 92 74 41 9 30 41 27 17 5 349 7 351 356 5 357 347 348 346 342 347 349 348 351 354 354 356
115 116 115 121 127 122 114 116 116 124 123 115 111 106 99 105 115 98 91 65 52 23 10 52 4 19 356 350 340 351 341 351 344 347 345 341 335 347 340 341 342 343 344 347
126 132 128 121 121 126 125 125 120 130 111 106 99 107 121 111 5 43 94 88 78 41 22 359 10 21 9 354 1 359 349 332 327 327 335 335 331 338 333 335 336 335 337 341
127 125 127 124 109 93 111 114 98 104 116 96 65 58 57 88 138 195 79 27 36 47 355 358 18 13 6 5 1 356 347 321 315 0 336 332 333 332 327 333 331 332 334 331
104 96 92 88 86 79 77 86 86 71 111 85 20 21 23 78 91 85 58 20 15 23 19 339 17 9 356 338 345 348 335 325 331 12 335 320 322 325 320 323 326 326 327 325
92 94 94 83 68 69 73 75 88 69 120 135 224 307 112 100 84 80 59 14 0 348 3 344 8 360 339 328 336 312 304 319 331 16 327 317 316 314 313 319 320 316 319 319